Location: Antioch
(38.0049°N, 121.8058°W)
Time: 03:45:26
(UTC+00:00)

Cosmos 2208 Rocket - Pass Details

Date: 21 May 2026
Orbit: 751 x 800 km, 74.0° (Epoch: 9 June)

Event Time Altitude Azimuth Distance (km) Brightness Sun altitude
Exits shadow 10:16:54 14° 291° (WNW) 2,023 6.0 -23.9°
Maximum altitude 10:17:48 15° 302° (WNW) 1,989 6.1 -23.8°
Drops below altitude 10° 10:20:46 10° 337° (NNW) 2,311 6.9 -23.5°
Sets 10:24:13 0° 1° (N) 3,231 8.1 -23.1°
